Time,TemperatureF,DewpointF,PressureIn,WindDirection,WindDirectionDegrees,WindSpeedMPH,WindSpeedGustMPH,Humidity,HourlyPrecipIn,Conditions,Clouds,dailyrainin,SoftwareType,DateUTC
2013-06-11 00:01:00,63.1,60.8,29.94,ENE,60,2.5,2.7,92,0.00,,OVC090,0.00,VWS V14.00,2013-06-11 04:01:00,
2013-06-11 00:04:00,63.1,60.8,29.94,ENE,60,0.0,0.0,92,0.00,,OVC110,0.00,VWS V14.00,2013-06-11 04:04:00,
2013-06-11 00:09:00,62.9,60.6,29.94,ENE,60,0.0,0.0,92,0.00,,OVC110,0.00,VWS V14.00,2013-06-11 04:09:00,
2013-06-11 00:14:00,62.7,60.4,29.94,ENE,60,0.0,2.7,92,0.00,,OVC110,0.00,VWS V14.00,2013-06-11 04:14:00,
2013-06-11 00:19:00,62.5,60.2,29.94,ENE,60,0.0,0.0,92,0.00,,OVC110,0.00,VWS V14.00,2013-06-11 04:19:00,
2013-06-11 00:24:00,62.4,60.0,29.94,ENE,60,0.0,0.0,92,0.00,,OVC110,0.00,VWS V14.00,2013-06-11 04:24:00,
2013-06-11 00:29:00,62.5,60.2,29.94,ENE,60,0.0,0.0,92,0.00,,OVC110,0.00,VWS V14.00,2013-06-11 04:29:00,
2013-06-11 00:34:00,62.5,60.2,29.94,ENE,60,0.0,0.0,92,0.00,,OVC110,0.00,VWS V14.00,2013-06-11 04:34:00,
2013-06-11 00:39:00,62.5,60.5,29.94,ENE,60,0.0,0.0,93,0.00,,OVC110,0.00,VWS V14.00,2013-06-11 04:39:00,
2013-06-11 00:44:00,62.5,60.5,29.94,SE,144,0.0,0.0,93,0.00,,OVC110,0.00,VWS V14.00,2013-06-11 04:44:00,
2013-06-11 00:49:00,62.4,60.3,29.94,SE,144,0.0,0.0,93,0.00,,OVC110,0.00,VWS V14.00,2013-06-11 04:49:00,
2013-06-11 00:54:00,62.2,60.4,29.94,NNW,329,0.0,0.0,94,0.00,,OVC110,0.00,VWS V14.00,2013-06-11 04:54:00,
2013-06-11 00:59:00,62.4,60.9,29.94,NNW,329,0.0,0.0,95,0.00,,OVC110,0.00,VWS V14.00,2013-06-11 04:59:00,
2013-06-11 01:04:00,62.2,60.7,29.94,ESE,109,2.5,2.7,95,0.00,,-RA,0.00,VWS V14.00,2013-06-11 05:04:00,
2013-06-11 01:09:00,62.2,60.7,29.94,ESE,109,0.0,0.0,95,0.00,,-RA,0.00,VWS V14.00,2013-06-11 05:09:00,
2013-06-11 01:14:00,62.2,60.7,29.94,ESE,109,0.0,0.0,95,0.00,,-RA,0.00,VWS V14.00,2013-06-11 05:14:00,
2013-06-11 01:19:00,61.8,60.4,29.94,ESE,109,0.0,0.0,95,0.00,,-RA,0.00,VWS V14.00,2013-06-11 05:19:00,
2013-06-11 01:24:00,61.6,60.2,29.94,ESE,109,2.5,2.7,95,0.00,,-RA,0.00,VWS V14.00,2013-06-11 05:24:00,
2013-06-11 01:30:00,61.4,60.3,29.94,ESE,109,0.0,0.0,96,0.00,,-RA,0.00,VWS V14.00,2013-06-11 05:30:00,
2013-06-11 01:35:00,61.4,60.6,29.94,ESE,109,0.0,0.0,97,0.00,,-RA,0.00,VWS V14.00,2013-06-11 05:35:00,
2013-06-11 01:40:00,61.4,60.6,29.94,ESE,109,0.0,0.0,97,0.00,,-RA,0.00,VWS V14.00,2013-06-11 05:40:00,
2013-06-11 01:45:00,61.2,60.7,29.94,ESE,109,2.5,2.7,98,0.00,,-RA,0.00,VWS V14.00,2013-06-11 05:45:00,
2013-06-11 01:50:00,61.2,60.7,29.94,ESE,109,0.0,0.0,98,0.00,,-RA,0.00,VWS V14.00,2013-06-11 05:50:00,
2013-06-11 01:55:00,61.4,60.9,29.94,ESE,109,0.0,0.0,98,0.00,,-RA,0.00,VWS V14.00,2013-06-11 05:55:00,
2013-06-11 02:00:00,61.6,61.1,29.94,ESE,109,0.0,0.0,98,0.00,,-RA,0.00,VWS V14.00,2013-06-11 06:00:00,
2013-06-11 02:05:00,61.6,61.1,29.94,SE,126,3.4,3.8,98,0.00,,BKN100,0.00,VWS V14.00,2013-06-11 06:05:00,
2013-06-11 02:10:00,61.6,61.1,29.94,ESE,122,0.0,0.0,98,0.00,,BKN100,0.00,VWS V14.00,2013-06-11 06:10:00,
2013-06-11 02:15:00,61.4,60.9,29.94,NNW,338,0.0,0.0,98,0.00,,BKN035,0.00,VWS V14.00,2013-06-11 06:15:00,
2013-06-11 02:20:00,61.4,60.9,29.94,NNW,338,0.0,0.0,98,0.00,,BKN035,0.00,VWS V14.00,2013-06-11 06:20:00,
2013-06-11 02:25:00,61.4,60.9,29.94,NNW,338,0.0,0.0,98,0.00,,BKN035,0.00,VWS V14.00,2013-06-11 06:25:00,
2013-06-11 02:30:00,61.4,60.9,29.94,ENE,59,3.0,3.2,98,0.00,,BKN035,0.00,VWS V14.00,2013-06-11 06:30:00,
2013-06-11 02:35:00,61.4,60.9,29.94,ENE,59,0.0,0.0,98,0.00,,BKN035,0.00,VWS V14.00,2013-06-11 06:35:00,
2013-06-11 02:40:00,61.4,60.9,29.94,ENE,59,0.0,0.0,98,0.00,,BKN035,0.00,VWS V14.00,2013-06-11 06:40:00,
2013-06-11 02:45:00,61.4,60.9,29.94,ENE,59,0.0,0.0,98,0.00,,OVC015,0.00,VWS V14.00,2013-06-11 06:45:00,
2013-06-11 02:50:00,61.6,61.1,29.94,ENE,59,0.0,0.0,98,0.00,,OVC015,0.00,VWS V14.00,2013-06-11 06:50:00,
2013-06-11 02:56:00,61.6,61.1,29.94,ENE,59,0.0,0.0,98,0.00,,OVC015,0.00,VWS V14.00,2013-06-11 06:56:00,
2013-06-11 03:01:00,61.6,61.1,29.94,ENE,59,0.0,0.0,98,0.00,,OVC015,0.00,VWS V14.00,2013-06-11 07:01:00,
2013-06-11 03:06:00,61.6,61.1,29.94,ENE,59,0.0,0.0,98,0.00,,OVC015,0.00,VWS V14.00,2013-06-11 07:06:00,
2013-06-11 03:11:00,61.6,61.1,29.94,ENE,59,0.0,0.0,98,0.00,,OVC015,0.00,VWS V14.00,2013-06-11 07:11:00,
2013-06-11 03:16:00,61.6,61.1,29.94,ENE,59,0.0,0.0,98,0.00,,OVC015,0.00,VWS V14.00,2013-06-11 07:16:00,
2013-06-11 03:21:00,61.6,61.1,29.94,ENE,59,0.0,0.0,98,0.00,,OVC015,0.00,VWS V14.00,2013-06-11 07:21:00,
2013-06-11 03:26:00,61.6,61.1,29.94,ENE,59,0.0,0.0,98,0.00,,OVC015,0.00,VWS V14.00,2013-06-11 07:26:00,
2013-06-11 03:31:00,61.6,61.1,29.94,ENE,59,0.0,0.0,98,0.00,,-RA,0.00,VWS V14.00,2013-06-11 07:31:00,
2013-06-11 03:36:00,61.6,61.1,29.94,ENE,59,0.0,0.0,98,0.00,,-RA,0.00,VWS V14.00,2013-06-11 07:36:00,
2013-06-11 03:42:00,61.8,61.2,29.94,ENE,59,0.0,0.0,98,0.00,,-RA,0.00,VWS V14.00,2013-06-11 07:42:00,
2013-06-11 03:47:00,61.8,61.2,29.91,ENE,59,0.0,0.0,98,0.00,,-RA,0.00,VWS V14.00,2013-06-11 07:47:00,
2013-06-11 03:52:00,61.8,61.2,29.91,ENE,59,0.0,0.0,98,0.00,,-RA,0.00,VWS V14.00,2013-06-11 07:52:00,
2013-06-11 03:57:00,61.8,61.2,29.91,ENE,59,0.0,0.0,98,0.00,,-RA,0.00,VWS V14.00,2013-06-11 07:57:00,
2013-06-11 04:02:00,61.8,61.2,29.94,ENE,59,0.0,0.0,98,0.00,,OVC006,0.00,VWS V14.00,2013-06-11 08:02:00,
2013-06-11 04:07:00,61.8,61.2,29.94,ENE,59,0.0,0.0,98,0.00,,OVC006,0.00,VWS V14.00,2013-06-11 08:07:00,
2013-06-11 04:12:00,61.8,61.2,29.94,ENE,59,0.0,0.0,98,0.01,,OVC006,0.01,VWS V14.00,2013-06-11 08:12:00,
2013-06-11 04:17:00,61.8,61.2,29.94,ENE,59,0.0,0.0,98,0.01,,-RA,0.01,VWS V14.00,2013-06-11 08:17:00,
2013-06-11 04:22:00,61.8,61.2,29.94,ENE,59,0.0,0.0,98,0.01,,-RA,0.01,VWS V14.00,2013-06-11 08:22:00,
2013-06-11 04:27:00,61.8,61.2,29.94,ENE,59,0.0,0.0,98,0.02,,-RA,0.02,VWS V14.00,2013-06-11 08:27:00,
2013-06-11 04:32:00,61.8,61.2,29.94,ENE,59,0.0,0.0,98,0.02,,-RA,0.02,VWS V14.00,2013-06-11 08:32:00,
2013-06-11 04:37:00,61.8,61.2,29.94,ENE,59,0.0,0.0,98,0.04,,-RA,0.04,VWS V14.00,2013-06-11 08:37:00,
2013-06-11 04:42:00,61.8,61.2,29.94,ENE,59,0.0,0.0,98,0.06,,-RA,0.06,VWS V14.00,2013-06-11 08:42:00,
2013-06-11 04:47:00,61.8,61.2,29.94,NW,311,3.4,4.3,98,0.07,,-RA,0.07,VWS V14.00,2013-06-11 08:47:00,
2013-06-11 04:52:00,61.8,61.2,29.94,NW,326,0.0,0.0,98,0.08,,-RA,0.08,VWS V14.00,2013-06-11 08:52:00,
2013-06-11 04:57:00,61.8,61.2,29.94,NW,326,0.0,0.0,98,0.08,,-RA,0.08,VWS V14.00,2013-06-11 08:57:00,
2013-06-11 05:02:00,61.8,61.2,29.94,NW,326,0.0,0.0,98,0.08,,OVC006,0.08,VWS V14.00,2013-06-11 09:02:00,
2013-06-11 05:08:00,61.8,61.2,29.94,NW,326,0.0,0.0,98,0.08,,OVC006,0.08,VWS V14.00,2013-06-11 09:08:00,
2013-06-11 05:13:00,61.8,61.2,29.94,NW,326,2.5,2.7,98,0.07,,OVC006,0.08,VWS V14.00,2013-06-11 09:13:00,
2013-06-11 05:18:00,61.8,61.2,29.94,ESE,115,0.0,2.7,98,0.07,,OVC006,0.08,VWS V14.00,2013-06-11 09:18:00,
2013-06-11 05:23:00,61.8,61.2,29.94,ESE,115,0.0,0.0,98,0.07,,OVC006,0.08,VWS V14.00,2013-06-11 09:23:00,
2013-06-11 05:28:00,61.8,61.2,29.94,ESE,115,0.0,0.0,98,0.06,,OVC006,0.08,VWS V14.00,2013-06-11 09:28:00,
2013-06-11 05:33:00,61.8,61.2,29.94,ESE,115,0.0,0.0,98,0.07,,OVC006,0.09,VWS V14.00,2013-06-11 09:33:00,
2013-06-11 05:38:00,61.8,61.2,29.94,ESE,115,0.0,0.0,98,0.05,,OVC006,0.09,VWS V14.00,2013-06-11 09:38:00,
2013-06-11 05:43:00,61.8,61.2,29.94,ESE,115,0.0,0.0,98,0.04,,OVC006,0.09,VWS V14.00,2013-06-11 09:43:00,
2013-06-11 05:48:00,61.8,61.2,29.94,ESE,115,0.0,0.0,98,0.02,,OVC006,0.09,VWS V14.00,2013-06-11 09:48:00,
2013-06-11 05:53:00,61.8,61.2,29.94,ESE,121,0.0,3.2,98,0.01,,OVC006,0.09,VWS V14.00,2013-06-11 09:53:00,
2013-06-11 05:58:00,61.8,61.2,29.94,ESE,121,0.0,0.0,98,0.01,,OVC006,0.09,VWS V14.00,2013-06-11 09:58:00,
2013-06-11 06:03:00,61.6,61.1,29.94,ESE,121,0.0,0.0,98,0.01,,-RA,0.09,VWS V14.00,2013-06-11 10:03:00,
2013-06-11 06:08:00,61.4,60.9,29.94,NNW,344,0.0,0.0,98,0.01,,-RA,0.09,VWS V14.00,2013-06-11 10:08:00,
2013-06-11 06:13:00,61.4,60.9,29.94,NNW,344,0.0,0.0,98,0.02,,-RA,0.10,VWS V14.00,2013-06-11 10:13:00,
2013-06-11 06:18:00,61.6,61.1,29.94,NNW,344,0.0,0.0,98,0.04,,-RA,0.12,VWS V14.00,2013-06-11 10:18:00,
2013-06-11 06:23:00,61.6,61.1,29.94,NNW,344,0.0,0.0,98,0.04,,-RA,0.12,VWS V14.00,2013-06-11 10:23:00,
2013-06-11 06:28:00,61.6,61.1,29.94,NNW,344,0.0,0.0,98,0.05,,-RA,0.13,VWS V14.00,2013-06-11 10:28:00,
2013-06-11 06:34:00,61.8,61.2,29.94,NNW,344,0.0,0.0,98,0.04,,-RA,0.13,VWS V14.00,2013-06-11 10:34:00,
2013-06-11 06:39:00,61.8,61.2,29.94,NNW,344,0.0,0.0,98,0.06,,-RA,0.15,VWS V14.00,2013-06-11 10:39:00,
2013-06-11 06:44:00,61.8,61.2,29.94,SSE,150,0.0,0.0,98,0.06,,-RA,0.15,VWS V14.00,2013-06-11 10:44:00,
2013-06-11 06:49:00,62.0,61.4,29.94,SSE,150,0.0,0.0,98,0.06,,-RA,0.15,VWS V14.00,2013-06-11 10:49:00,
2013-06-11 06:54:00,62.0,61.4,29.94,South,180,0.0,0.0,98,0.06,,-RA,0.15,VWS V14.00,2013-06-11 10:54:00,
2013-06-11 06:59:00,62.2,61.6,29.94,South,180,0.0,0.0,98,0.06,,-RA,0.15,VWS V14.00,2013-06-11 10:59:00,
2013-06-11 07:04:00,62.2,61.6,29.94,South,180,0.0,0.0,98,0.06,,,0.15,VWS V14.00,2013-06-11 11:04:00,
2013-06-11 07:09:00,62.2,61.6,29.94,South,180,0.0,0.0,98,0.06,,,0.15,VWS V14.00,2013-06-11 11:09:00,
2013-06-11 07:14:00,62.2,61.6,29.94,NNE,16,2.5,7.0,98,0.05,,,0.15,VWS V14.00,2013-06-11 11:14:00,
2013-06-11 07:19:00,62.2,61.6,29.94,ESE,103,0.0,0.0,98,0.03,,,0.15,VWS V14.00,2013-06-11 11:19:00,
2013-06-11 07:24:00,62.2,61.6,29.94,ESE,103,0.0,0.0,98,0.03,,,0.15,VWS V14.00,2013-06-11 11:24:00,
2013-06-11 07:29:00,62.4,61.8,29.94,ENE,78,0.0,0.0,98,0.02,,,0.15,VWS V14.00,2013-06-11 11:29:00,
2013-06-11 07:35:00,62.5,62.0,29.94,ENE,78,0.0,0.0,98,0.02,,-RA,0.15,VWS V14.00,2013-06-11 11:35:00,
2013-06-11 07:40:00,62.7,62.2,29.94,SSW,199,3.4,3.8,98,0.00,,-RA,0.15,VWS V14.00,2013-06-11 11:40:00,
2013-06-11 07:45:00,63.1,62.5,29.94,SSW,194,5.4,5.9,98,0.00,,-RA,0.15,VWS V14.00,2013-06-11 11:45:00,
2013-06-11 07:50:00,63.3,62.7,29.94,SW,223,3.0,4.3,98,0.00,,,0.15,VWS V14.00,2013-06-11 11:50:00,
2013-06-11 07:55:00,63.5,62.9,29.94,West,267,3.0,3.8,98,0.00,,,0.15,VWS V14.00,2013-06-11 11:55:00,
2013-06-11 08:00:00,63.8,63.3,29.94,WNW,295,6.9,7.5,98,0.00,,,0.15,VWS V14.00,2013-06-11 12:00:00,
2013-06-11 08:05:00,63.7,63.1,29.97,WNW,287,4.4,7.0,98,0.00,,OVC020,0.15,VWS V14.00,2013-06-11 12:05:00,
2013-06-11 08:10:00,63.7,63.1,29.97,WSW,256,6.4,7.0,98,0.00,,OVC020,0.15,VWS V14.00,2013-06-11 12:10:00,
2013-06-11 08:15:00,63.8,63.3,29.97,WSW,247,6.4,7.0,98,0.00,,OVC020,0.15,VWS V14.00,2013-06-11 12:15:00,
2013-06-11 08:20:00,64.2,63.1,29.97,West,259,3.9,9.1,96,0.00,,OVC020,0.15,VWS V14.00,2013-06-11 12:20:00,
2013-06-11 08:25:00,64.4,62.3,29.97,WSW,237,4.4,7.0,93,0.00,,OVC020,0.15,VWS V14.00,2013-06-11 12:25:00,
2013-06-11 08:30:00,64.4,61.7,29.97,West,267,8.4,10.5,91,0.00,,OVC020,0.15,VWS V14.00,2013-06-11 12:30:00,
2013-06-11 08:35:00,64.4,61.1,29.97,West,261,3.9,6.4,89,0.00,,OVC020,0.15,VWS V14.00,2013-06-11 12:35:00,
2013-06-11 08:40:00,64.4,61.1,29.97,SW,224,4.4,4.8,89,0.00,,OVC020,0.15,VWS V14.00,2013-06-11 12:40:00,
2013-06-11 08:45:00,64.8,61.1,29.97,NW,317,6.9,7.5,88,0.00,,OVC020,0.15,VWS V14.00,2013-06-11 12:45:00,
2013-06-11 08:50:00,65.0,61.0,29.97,West,262,6.4,10.5,87,0.00,,OVC045,0.15,VWS V14.00,2013-06-11 12:50:00,
2013-06-11 08:55:00,65.3,60.4,29.97,West,277,4.4,7.5,84,0.00,,OVC045,0.15,VWS V14.00,2013-06-11 12:55:00,
2013-06-11 09:00:00,65.3,59.7,29.97,WSW,240,3.4,6.4,82,0.00,,OVC045,0.15,VWS V14.00,2013-06-11 13:00:00,
2013-06-11 09:06:00,65.0,59.7,29.97,WNW,294,8.4,9.1,83,0.00,,OVC044,0.15,VWS V14.00,2013-06-11 13:06:00,
2013-06-11 09:11:00,64.6,60.0,29.97,West,264,3.9,4.8,85,0.00,,OVC044,0.15,VWS V14.00,2013-06-11 13:11:00,
2013-06-11 09:16:00,64.6,60.3,29.97,SW,220,0.0,2.7,86,0.00,,OVC044,0.15,VWS V14.00,2013-06-11 13:16:00,
2013-06-11 09:21:00,64.6,60.6,29.97,WNW,287,3.4,3.8,87,0.00,,OVC044,0.15,VWS V14.00,2013-06-11 13:21:00,
2013-06-11 09:26:00,64.8,60.8,29.97,West,261,4.4,6.4,87,0.00,,OVC044,0.15,VWS V14.00,2013-06-11 13:26:00,
2013-06-11 09:31:00,64.8,60.8,29.97,WSW,249,3.4,3.8,87,0.00,,OVC044,0.15,VWS V14.00,2013-06-11 13:31:00,
2013-06-11 09:36:00,65.0,61.0,29.97,SW,215,9.1,9.9,87,0.00,,OVC044,0.15,VWS V14.00,2013-06-11 13:36:00,
2013-06-11 09:41:00,65.3,61.0,29.97,West,273,6.9,10.5,86,0.00,,OVC044,0.15,VWS V14.00,2013-06-11 13:41:00,
2013-06-11 09:46:00,65.3,60.0,29.97,SW,214,6.9,7.5,83,0.00,,OVC012,0.15,VWS V14.00,2013-06-11 13:46:00,
2013-06-11 09:52:00,65.0,60.3,29.97,SSE,159,3.4,4.3,85,0.00,,OVC012,0.15,VWS V14.00,2013-06-11 13:52:00,
2013-06-11 09:57:00,64.6,60.3,29.97,SSW,208,6.4,7.0,86,0.00,,OVC012,0.15,VWS V14.00,2013-06-11 13:57:00,
2013-06-11 10:02:00,64.6,60.6,29.97,SSE,164,3.0,4.8,87,0.00,,OVC012,0.15,VWS V14.00,2013-06-11 14:02:00,
2013-06-11 10:07:00,64.8,61.1,29.97,SW,236,3.0,7.5,88,0.00,,OVC019,0.15,VWS V14.00,2013-06-11 14:07:00,
2013-06-11 10:12:00,64.6,61.3,29.97,South,175,3.9,6.4,89,0.00,,OVC019,0.15,VWS V14.00,2013-06-11 14:12:00,
2013-06-11 10:17:00,64.4,61.4,29.97,SSE,150,4.4,4.8,90,0.00,,OVC019,0.15,VWS V14.00,2013-06-11 14:17:00,
2013-06-11 10:22:00,64.4,61.7,29.97,SW,223,3.4,4.8,91,0.00,,OVC019,0.15,VWS V14.00,2013-06-11 14:22:00,
2013-06-11 10:27:00,64.8,61.5,29.97,South,179,3.9,7.0,89,0.00,,OVC019,0.15,VWS V14.00,2013-06-11 14:27:00,
2013-06-11 10:33:00,65.2,61.5,29.97,WSW,244,8.4,12.6,88,0.00,,OVC018,0.15,VWS V14.00,2013-06-11 14:33:00,
2013-06-11 10:38:00,65.5,61.9,29.97,SSE,153,6.9,9.1,88,0.00,,OVC018,0.15,VWS V14.00,2013-06-11 14:38:00,
2013-06-11 10:43:00,65.5,61.5,29.97,SSE,164,6.4,7.0,87,0.00,,OVC018,0.15,VWS V14.00,2013-06-11 14:43:00,
2013-06-11 10:48:00,65.7,62.1,29.97,SSE,153,4.4,4.8,88,0.00,,OVC018,0.15,VWS V14.00,2013-06-11 14:48:00,
2013-06-11 11:21:00,66.8,60.1,29.97,NW,317,7.4,8.1,79,0.00,,OVC018,0.15,VWS V14.00,2013-06-11 15:21:00,
2013-06-11 11:26:00,67.0,59.6,29.97,WSW,244,3.9,5.4,77,0.00,,OVC012,0.15,VWS V14.00,2013-06-11 15:26:00,
2013-06-11 11:31:00,67.2,60.1,29.97,WSW,249,3.9,4.3,78,0.00,,OVC012,0.15,VWS V14.00,2013-06-11 15:31:00,
2013-06-11 11:36:00,67.2,59.7,29.97,SW,214,6.9,7.5,77,0.00,,OVC012,0.15,VWS V14.00,2013-06-11 15:36:00,
2013-06-11 11:41:00,67.4,59.2,29.97,West,276,9.6,10.5,75,0.00,,OVC012,0.15,VWS V14.00,2013-06-11 15:41:00,
2013-06-11 11:46:00,67.2,59.0,30.00,West,270,3.9,6.4,75,0.00,,OVC036,0.15,VWS V14.00,2013-06-11 15:46:00,
2013-06-11 11:51:00,67.2,59.0,30.00,West,261,5.9,9.1,75,0.00,,OVC036,0.15,VWS V14.00,2013-06-11 15:51:00,
2013-06-11 11:56:00,67.2,58.6,30.00,WNW,288,6.4,7.5,74,0.00,,OVC036,0.15,VWS V14.00,2013-06-11 15:56:00,
2013-06-11 12:02:00,67.4,59.2,30.00,WNW,287,4.4,7.5,75,0.00,,OVC036,0.15,VWS V14.00,2013-06-11 16:02:00,
2013-06-11 12:07:00,67.7,59.5,30.00,West,272,9.1,9.9,75,0.00,,OVC041,0.15,VWS V14.00,2013-06-11 16:07:00,
2013-06-11 12:12:00,67.9,59.0,30.00,West,270,8.4,9.1,73,0.00,,OVC041,0.15,VWS V14.00,2013-06-11 16:12:00,
2013-06-11 12:17:00,68.1,59.1,30.00,West,272,6.4,7.5,73,0.00,,OVC041,0.15,VWS V14.00,2013-06-11 16:17:00,
2013-06-11 12:22:00,68.5,59.1,30.00,SW,221,9.6,12.6,72,0.00,,OVC041,0.15,VWS V14.00,2013-06-11 16:22:00,
2013-06-11 12:27:00,68.8,59.5,30.00,WSW,255,6.4,9.9,72,0.00,,OVC041,0.15,VWS V14.00,2013-06-11 16:27:00,
2013-06-11 12:32:00,68.8,59.5,29.97,SW,229,6.9,8.6,72,0.00,,OVC041,0.15,VWS V14.00,2013-06-11 16:32:00,
2013-06-11 12:37:00,68.8,59.1,29.97,WSW,257,6.9,9.7,71,0.00,,OVC041,0.15,VWS V14.00,2013-06-11 16:37:00,
2013-06-11 12:42:00,68.7,58.9,29.97,WNW,298,8.4,10.5,71,0.00,,OVC041,0.15,VWS V14.00,2013-06-11 16:42:00,
2013-06-11 12:47:00,68.7,57.7,29.97,West,277,11.6,15.8,68,0.00,,OVC041,0.15,VWS V14.00,2013-06-11 16:47:00,
2013-06-11 12:52:00,68.8,59.1,29.97,West,273,8.9,9.7,71,0.00,,OVC041,0.15,VWS V14.00,2013-06-11 16:52:00,
2013-06-11 12:57:00,69.0,58.0,29.97,NW,308,9.6,10.5,68,0.00,,OVC041,0.15,VWS V14.00,2013-06-11 16:57:00,
2013-06-11 13:02:00,69.4,58.8,29.97,WNW,294,6.4,9.9,69,0.00,,OVC041,0.15,VWS V14.00,2013-06-11 17:02:00,
2013-06-11 13:07:00,69.4,58.4,29.97,NW,317,6.4,9.9,68,0.00,,OVC044,0.15,VWS V14.00,2013-06-11 17:07:00,
2013-06-11 13:12:00,69.4,58.4,29.97,WNW,298,8.4,9.9,68,0.00,,OVC044,0.15,VWS V14.00,2013-06-11 17:12:00,
2013-06-11 13:17:00,69.0,58.0,30.00,SW,230,8.9,9.9,68,0.00,,OVC044,0.15,VWS V14.00,2013-06-11 17:17:00,
2013-06-11 13:23:00,68.8,58.7,30.00,SW,219,3.9,9.9,70,0.00,,OVC044,0.15,VWS V14.00,2013-06-11 17:23:00,
2013-06-11 13:28:00,68.7,58.5,30.00,WSW,241,6.9,7.5,70,0.00,,OVC044,0.15,VWS V14.00,2013-06-11 17:28:00,
2013-06-11 13:33:00,68.7,58.5,30.00,WSW,246,8.4,9.7,70,0.00,,OVC044,0.15,VWS V14.00,2013-06-11 17:33:00,
2013-06-11 13:38:00,69.4,59.2,30.00,West,268,7.4,12.1,70,0.00,,OVC044,0.15,VWS V14.00,2013-06-11 17:38:00,
2013-06-11 13:43:00,69.6,59.4,30.00,SW,232,5.9,10.5,70,0.00,,OVC044,0.15,VWS V14.00,2013-06-11 17:43:00,
2013-06-11 13:48:00,69.4,58.8,30.00,West,271,7.4,8.1,69,0.00,,OVC044,0.15,VWS V14.00,2013-06-11 17:48:00,
2013-06-11 13:53:00,69.2,58.6,30.00,West,263,6.9,7.5,69,0.00,,OVC044,0.15,VWS V14.00,2013-06-11 17:53:00,
2013-06-11 13:58:00,69.2,58.2,30.00,WNW,292,12.1,14.8,68,0.00,,OVC044,0.15,VWS V14.00,2013-06-11 17:58:00,
2013-06-11 14:03:00,69.4,59.2,30.00,WNW,288,6.4,7.5,70,0.00,,BKN037,0.15,VWS V14.00,2013-06-11 18:03:00,
2013-06-11 14:08:00,69.6,59.0,30.00,WSW,242,3.0,4.3,69,0.00,,BKN037,0.15,VWS V14.00,2013-06-11 18:08:00,
2013-06-11 14:13:00,69.8,59.6,30.00,West,259,6.9,7.5,70,0.00,,BKN037,0.15,VWS V14.00,2013-06-11 18:13:00,
2013-06-11 14:18:00,70.0,59.3,30.00,West,275,5.9,7.5,69,0.00,,OVC050,0.15,VWS V14.00,2013-06-11 18:18:00,
2013-06-11 14:23:00,70.0,59.3,30.00,WSW,251,7.4,8.1,69,0.00,,OVC050,0.15,VWS V14.00,2013-06-11 18:23:00,
2013-06-11 14:28:00,70.3,60.1,30.00,West,278,5.9,7.5,70,0.00,,OVC050,0.15,VWS V14.00,2013-06-11 18:28:00,
2013-06-11 14:33:00,70.9,59.8,30.00,West,280,6.9,7.5,68,0.00,,OVC050,0.15,VWS V14.00,2013-06-11 18:33:00,
2013-06-11 14:38:00,71.4,59.9,30.00,NW,314,6.9,9.1,67,0.00,,OVC050,0.15,VWS V14.00,2013-06-11 18:38:00,
2013-06-11 14:43:00,71.4,59.9,30.00,WNW,285,5.9,7.5,67,0.00,,OVC050,0.15,VWS V14.00,2013-06-11 18:43:00,
2013-06-11 14:48:00,71.3,59.8,30.00,NW,308,4.4,5.9,67,0.00,,OVC050,0.15,VWS V14.00,2013-06-11 18:48:00,
2013-06-11 14:53:00,70.9,59.4,30.00,West,273,9.1,9.9,67,0.00,,OVC050,0.15,VWS V14.00,2013-06-11 18:53:00,
2013-06-11 14:58:00,70.9,59.8,30.00,West,273,6.9,9.7,68,0.00,,OVC050,0.15,VWS V14.00,2013-06-11 18:58:00,
2013-06-11 15:04:00,70.7,59.6,30.00,SW,231,6.4,9.9,68,0.00,,BKN049,0.15,VWS V14.00,2013-06-11 19:04:00,
2013-06-11 15:09:00,71.3,60.2,30.00,NW,315,8.9,10.5,68,0.00,,BKN049,0.15,VWS V14.00,2013-06-11 19:09:00,
2013-06-11 15:14:00,72.6,61.4,30.00,WNW,292,4.4,9.7,68,0.00,,BKN049,0.15,VWS V14.00,2013-06-11 19:14:00,
2013-06-11 15:19:00,73.5,62.3,30.00,NW,311,6.9,7.5,68,0.00,,BKN049,0.15,VWS V14.00,2013-06-11 19:19:00,
2013-06-11 15:24:00,73.3,60.8,30.00,NW,309,7.4,9.1,65,0.00,,BKN049,0.15,VWS V14.00,2013-06-11 19:24:00,
2013-06-11 15:29:00,72.8,59.4,30.00,North,353,13.5,14.8,63,0.00,,BKN049,0.15,VWS V14.00,2013-06-11 19:29:00,
2013-06-11 15:34:00,73.1,58.0,30.00,WNW,292,8.9,13.2,59,0.00,,BKN049,0.15,VWS V14.00,2013-06-11 19:34:00,
2013-06-11 15:39:00,72.9,58.7,30.00,NW,309,6.4,9.7,61,0.00,,BKN049,0.15,VWS V14.00,2013-06-11 19:39:00,
2013-06-11 15:44:00,72.8,58.1,30.00,WSW,241,4.4,4.8,60,0.00,,BKN049,0.15,VWS V14.00,2013-06-11 19:44:00,
2013-06-11 15:49:00,72.8,58.5,30.00,WSW,243,3.0,9.9,61,0.00,,BKN049,0.15,VWS V14.00,2013-06-11 19:49:00,
2013-06-11 15:54:00,73.1,59.3,30.00,NW,318,6.4,7.0,62,0.00,,BKN049,0.15,VWS V14.00,2013-06-11 19:54:00,
2013-06-11 15:59:00,73.3,57.7,30.00,NNW,327,14.5,15.8,58,0.00,,BKN049,0.15,VWS V14.00,2013-06-11 19:59:00,
2013-06-11 16:04:00,73.5,58.8,29.97,NNW,334,14.0,18.0,60,0.00,,SCT055,0.15,VWS V14.00,2013-06-11 20:04:00,
2013-06-11 16:09:00,73.5,58.8,29.97,WNW,297,8.9,10.5,60,0.00,,SCT055,0.15,VWS V14.00,2013-06-11 20:09:00,
2013-06-11 16:14:00,74.1,58.8,29.97,NNW,333,8.4,12.6,59,0.00,,SCT055,0.15,VWS V14.00,2013-06-11 20:14:00,
2013-06-11 16:19:00,73.1,58.0,29.97,NW,304,5.4,7.5,59,0.00,,SCT055,0.15,VWS V14.00,2013-06-11 20:19:00,
2013-06-11 16:24:00,75.0,59.7,29.97,North,5,5.4,9.7,59,0.00,,SCT055,0.15,VWS V14.00,2013-06-11 20:24:00,
2013-06-11 16:29:00,74.6,59.3,29.97,WNW,282,4.4,4.8,59,0.00,,SCT055,0.15,VWS V14.00,2013-06-11 20:29:00,
2013-06-11 16:35:00,75.5,59.2,29.97,West,267,3.9,7.0,57,0.00,,SCT055,0.15,VWS V14.00,2013-06-11 20:35:00,
2013-06-11 16:40:00,75.2,58.4,29.97,NW,304,8.4,9.1,56,0.00,,SCT055,0.15,VWS V14.00,2013-06-11 20:40:00,
2013-06-11 16:45:00,75.0,57.2,29.97,NW,323,8.4,9.1,54,0.00,,SCT055,0.15,VWS V14.00,2013-06-11 20:45:00,
2013-06-11 16:50:00,74.1,56.4,29.97,NW,315,11.6,16.9,54,0.00,,SCT055,0.15,VWS V14.00,2013-06-11 20:50:00,
2013-06-11 16:55:00,74.1,56.9,29.97,NW,311,9.6,12.1,55,0.00,,SCT055,0.15,VWS V14.00,2013-06-11 20:55:00,
2013-06-11 17:00:00,74.8,57.0,29.97,NW,308,6.9,10.5,54,0.00,,SCT055,0.15,VWS V14.00,2013-06-11 21:00:00,
2013-06-11 17:05:00,75.2,58.4,29.97,NW,308,12.1,14.8,56,0.00,,BKN055,0.15,VWS V14.00,2013-06-11 21:05:00,
2013-06-11 17:10:00,75.7,58.9,29.97,NNW,332,11.1,13.2,56,0.00,,BKN055,0.15,VWS V14.00,2013-06-11 21:10:00,
2013-06-11 17:15:00,75.2,58.4,29.97,WNW,286,9.1,10.5,56,0.00,,BKN055,0.15,VWS V14.00,2013-06-11 21:15:00,
2013-06-11 17:20:00,74.1,57.9,29.97,West,274,8.4,9.1,57,0.00,,BKN055,0.15,VWS V14.00,2013-06-11 21:20:00,
2013-06-11 17:25:00,75.0,58.7,29.97,NNW,329,8.4,13.2,57,0.00,,BKN055,0.15,VWS V14.00,2013-06-11 21:25:00,
2013-06-11 17:30:00,75.0,57.7,29.97,NW,310,10.6,11.5,55,0.00,,BKN055,0.15,VWS V14.00,2013-06-11 21:30:00,
2013-06-11 17:35:00,74.2,57.5,29.97,WNW,299,5.9,9.9,56,0.00,,BKN055,0.15,VWS V14.00,2013-06-11 21:35:00,
2013-06-11 17:40:00,75.3,59.1,29.97,NNW,345,6.9,9.1,57,0.00,,BKN055,0.15,VWS V14.00,2013-06-11 21:40:00,
2013-06-11 17:46:00,75.5,58.8,29.97,NW,322,9.6,10.5,56,0.00,,BKN055,0.15,VWS V14.00,2013-06-11 21:46:00,
2013-06-11 17:51:00,75.2,57.4,29.97,WNW,282,5.9,9.9,54,0.00,,BKN055,0.15,VWS V14.00,2013-06-11 21:51:00,
2013-06-11 17:56:00,74.6,57.4,29.97,NNW,341,6.4,10.5,55,0.00,,BKN055,0.15,VWS V14.00,2013-06-11 21:56:00,
2013-06-11 18:01:00,74.6,58.9,29.97,NW,318,8.4,13.2,58,0.00,,BKN055,0.15,VWS V14.00,2013-06-11 22:01:00,
2013-06-11 18:06:00,74.6,57.4,29.97,NNW,330,11.1,16.9,55,0.00,,BKN060,0.15,VWS V14.00,2013-06-11 22:06:00,
2013-06-11 18:11:00,73.9,57.7,29.97,NW,326,14.0,15.3,57,0.00,,BKN060,0.15,VWS V14.00,2013-06-11 22:11:00,
2013-06-11 18:16:00,74.4,58.7,29.97,NNW,340,9.6,12.6,58,0.00,,BKN060,0.15,VWS V14.00,2013-06-11 22:16:00,
2013-06-11 18:21:00,74.6,58.4,29.97,NW,316,9.6,10.5,57,0.00,,BKN060,0.15,VWS V14.00,2013-06-11 22:21:00,
2013-06-11 18:26:00,75.0,59.2,29.97,West,279,5.9,7.0,58,0.00,,BKN060,0.15,VWS V14.00,2013-06-11 22:26:00,
2013-06-11 18:32:00,75.2,58.9,29.97,WNW,296,5.9,8.6,57,0.00,,BKN060,0.15,VWS V14.00,2013-06-11 22:32:00,
2013-06-11 18:37:00,75.2,58.4,29.97,NW,320,6.4,9.7,56,0.00,,BKN060,0.15,VWS V14.00,2013-06-11 22:37:00,
2013-06-11 18:42:00,74.2,58.5,29.97,WNW,285,5.9,7.5,58,0.00,,BKN060,0.15,VWS V14.00,2013-06-11 22:42:00,
2013-06-11 18:47:00,74.6,58.4,29.97,NW,324,8.4,9.9,57,0.00,,BKN060,0.15,VWS V14.00,2013-06-11 22:47:00,
2013-06-11 18:52:00,74.8,59.0,29.97,NW,313,6.9,9.7,58,0.00,,BKN060,0.15,VWS V14.00,2013-06-11 22:52:00,
2013-06-11 18:57:00,74.8,58.1,29.97,NW,311,9.6,11.5,56,0.00,,BKN060,0.15,VWS V14.00,2013-06-11 22:57:00,
2013-06-11 19:02:00,74.6,58.4,29.97,NW,304,9.6,10.5,57,0.00,,BKN060,0.15,VWS V14.00,2013-06-11 23:02:00,
2013-06-11 19:07:00,74.4,58.7,29.97,NW,321,6.9,9.1,58,0.00,,CLR,0.15,VWS V14.00,2013-06-11 23:07:00,
2013-06-11 19:12:00,74.2,59.0,29.97,NW,309,5.4,7.0,59,0.00,,CLR,0.15,VWS V14.00,2013-06-11 23:12:00,
2013-06-11 19:17:00,74.2,59.5,29.97,WNW,300,4.4,7.5,60,0.00,,CLR,0.15,VWS V14.00,2013-06-11 23:17:00,
2013-06-11 19:22:00,74.1,59.3,29.97,NW,308,4.4,7.5,60,0.00,,CLR,0.15,VWS V14.00,2013-06-11 23:22:00,
2013-06-11 19:27:00,73.9,59.1,29.97,NW,308,5.9,9.7,60,0.00,,CLR,0.15,VWS V14.00,2013-06-11 23:27:00,
2013-06-11 19:32:00,73.7,58.5,29.97,NNW,332,6.9,9.9,59,0.00,,CLR,0.15,VWS V14.00,2013-06-11 23:32:00,
2013-06-11 19:37:00,73.9,59.1,29.97,SSW,205,3.9,4.8,60,0.00,,CLR,0.15,VWS V14.00,2013-06-11 23:37:00,
2013-06-11 19:42:00,73.7,58.9,29.97,WSW,256,4.4,7.5,60,0.00,,CLR,0.15,VWS V14.00,2013-06-11 23:42:00,
2013-06-11 19:47:00,73.5,58.8,29.97,WNW,303,6.4,7.0,60,0.00,,CLR,0.15,VWS V14.00,2013-06-11 23:47:00,
2013-06-11 19:53:00,72.9,58.7,29.97,West,259,3.9,4.8,61,0.00,,CLR,0.15,VWS V14.00,2013-06-11 23:53:00,
2013-06-11 19:58:00,72.6,58.8,29.97,West,274,3.9,4.8,62,0.00,,CLR,0.15,VWS V14.00,2013-06-11 23:58:00,
2013-06-11 20:03:00,72.6,59.3,29.97,WNW,297,4.4,4.8,63,0.00,,SCT028,0.15,VWS V14.00,2013-06-12 00:03:00,
2013-06-11 20:08:00,72.0,59.6,29.97,West,274,3.0,4.3,65,0.00,,SCT028,0.15,VWS V14.00,2013-06-12 00:08:00,
2013-06-11 20:13:00,71.6,59.3,29.97,WSW,258,3.9,5.9,65,0.00,,SCT028,0.15,VWS V14.00,2013-06-12 00:13:00,
2013-06-11 20:18:00,71.6,59.3,30.00,NNW,331,6.4,8.6,65,0.00,,SCT028,0.15,VWS V14.00,2013-06-12 00:18:00,
2013-06-11 20:23:00,71.3,58.9,30.00,NW,322,3.4,5.9,65,0.00,,SCT028,0.15,VWS V14.00,2013-06-12 00:23:00,
2013-06-11 20:28:00,71.1,59.2,30.00,WSW,250,3.0,3.8,66,0.00,,SCT028,0.15,VWS V14.00,2013-06-12 00:28:00,
2013-06-11 20:33:00,71.1,59.2,30.00,WNW,301,2.5,2.7,66,0.00,,SCT028,0.15,VWS V14.00,2013-06-12 00:33:00,
2013-06-11 20:38:00,71.1,59.2,30.00,NW,304,3.0,4.8,66,0.00,,SCT028,0.15,VWS V14.00,2013-06-12 00:38:00,
2013-06-11 20:43:00,70.9,59.0,30.00,South,171,3.0,3.2,66,0.00,,SCT028,0.15,VWS V14.00,2013-06-12 00:43:00,
2013-06-11 20:48:00,70.7,59.2,30.00,WNW,286,3.0,3.2,67,0.00,,SCT028,0.15,VWS V14.00,2013-06-12 00:48:00,
2013-06-11 20:53:00,70.5,59.0,30.00,SSW,204,0.0,0.0,67,0.00,,SCT028,0.15,VWS V14.00,2013-06-12 00:53:00,
2013-06-11 20:58:00,70.3,59.3,30.00,SW,228,0.0,3.2,68,0.00,,SCT028,0.15,VWS V14.00,2013-06-12 00:58:00,
2013-06-11 21:03:00,70.2,59.1,30.00,WSW,255,0.0,0.0,68,0.00,,CLR,0.15,VWS V14.00,2013-06-12 01:03:00,
2013-06-11 21:09:00,69.6,59.0,30.00,East,90,3.0,4.3,69,0.00,,CLR,0.15,VWS V14.00,2013-06-12 01:09:00,
2013-06-11 21:14:00,69.4,59.2,30.00,WNW,282,2.5,2.7,70,0.00,,CLR,0.15,VWS V14.00,2013-06-12 01:14:00,
2013-06-11 21:19:00,69.6,59.4,30.00,SW,235,0.0,0.0,70,0.00,,CLR,0.15,VWS V14.00,2013-06-12 01:19:00,
2013-06-11 21:24:00,69.6,59.4,30.00,SSE,155,2.5,3.2,70,0.00,,CLR,0.15,VWS V14.00,2013-06-12 01:24:00,
2013-06-11 21:29:00,69.2,59.0,30.00,SE,139,0.0,2.7,70,0.00,,CLR,0.15,VWS V14.00,2013-06-12 01:29:00,
2013-06-11 21:34:00,69.8,60.0,30.00,NW,324,3.9,7.0,71,0.00,,CLR,0.15,VWS V14.00,2013-06-12 01:34:00,
2013-06-11 21:39:00,69.8,60.0,30.00,WNW,293,0.0,0.0,71,0.00,,CLR,0.15,VWS V14.00,2013-06-12 01:39:00,
2013-06-11 21:44:00,70.0,59.8,30.00,West,264,0.0,3.2,70,0.00,,CLR,0.15,VWS V14.00,2013-06-12 01:44:00,
2013-06-11 21:49:00,69.4,59.6,30.00,SE,125,3.0,3.2,71,0.00,,CLR,0.15,VWS V14.00,2013-06-12 01:49:00,
2013-06-11 21:54:00,69.2,59.4,30.00,SE,125,0.0,0.0,71,0.00,,CLR,0.15,VWS V14.00,2013-06-12 01:54:00,
2013-06-11 21:59:00,68.8,59.5,30.00,SE,125,0.0,0.0,72,0.00,,CLR,0.15,VWS V14.00,2013-06-12 01:59:00,
2013-06-11 22:04:00,68.8,59.5,30.03,SE,125,0.0,2.7,72,0.00,,CLR,0.15,VWS V14.00,2013-06-12 02:04:00,
2013-06-11 22:10:00,68.7,59.7,30.03,SE,125,3.0,4.3,73,0.00,,CLR,0.15,VWS V14.00,2013-06-12 02:10:00,
2013-06-11 22:15:00,68.5,59.5,30.03,SSE,155,3.0,3.2,73,0.00,,CLR,0.15,VWS V14.00,2013-06-12 02:15:00,
2013-06-11 22:20:00,68.5,59.9,30.03,WSW,241,0.0,0.0,74,0.00,,CLR,0.15,VWS V14.00,2013-06-12 02:20:00,
2013-06-11 22:25:00,68.3,60.1,30.03,WNW,282,4.4,4.8,75,0.00,,CLR,0.15,VWS V14.00,2013-06-12 02:25:00,
2013-06-11 22:30:00,68.5,60.6,30.03,NW,316,3.0,3.2,76,0.00,,CLR,0.15,VWS V14.00,2013-06-12 02:30:00,
2013-06-11 22:35:00,68.5,60.3,30.00,NNW,334,0.0,0.0,75,0.00,,CLR,0.15,VWS V14.00,2013-06-12 02:35:00,
2013-06-11 22:40:00,67.9,60.1,30.00,NNW,334,0.0,3.2,76,0.00,,CLR,0.15,VWS V14.00,2013-06-12 02:40:00,
2013-06-11 22:45:00,67.9,60.1,30.00,NNW,334,0.0,0.0,76,0.00,,CLR,0.15,VWS V14.00,2013-06-12 02:45:00,
2013-06-11 22:50:00,67.9,60.1,30.00,NNW,334,0.0,0.0,76,0.00,,CLR,0.15,VWS V14.00,2013-06-12 02:50:00,
2013-06-11 22:55:00,68.3,60.8,30.00,SSW,203,2.5,3.8,77,0.00,,CLR,0.15,VWS V14.00,2013-06-12 02:55:00,
2013-06-11 23:00:00,68.5,61.0,30.00,SSE,162,2.5,2.7,77,0.00,,CLR,0.15,VWS V14.00,2013-06-12 03:00:00,
2013-06-11 23:05:00,67.9,60.8,30.00,SE,139,0.0,3.8,78,0.00,,CLR,0.15,VWS V14.00,2013-06-12 03:05:00,
2013-06-11 23:10:00,67.9,60.8,30.00,SSW,195,3.0,3.2,78,0.00,,CLR,0.15,VWS V14.00,2013-06-12 03:10:00,
2013-06-11 23:15:00,67.7,61.0,30.00,East,85,0.0,3.8,79,0.00,,CLR,0.15,VWS V14.00,2013-06-12 03:15:00,
2013-06-11 23:21:00,67.6,60.8,30.00,WSW,253,2.5,3.8,79,0.00,,CLR,0.15,VWS V14.00,2013-06-12 03:21:00,
2013-06-11 23:26:00,67.6,60.8,30.00,ENE,64,3.0,4.3,79,0.00,,CLR,0.15,VWS V14.00,2013-06-12 03:26:00,
2013-06-11 23:31:00,67.4,61.0,30.00,ENE,69,0.0,0.0,80,0.00,,CLR,0.15,VWS V14.00,2013-06-12 03:31:00,
2013-06-11 23:36:00,68.1,61.7,30.00,WSW,257,3.9,9.1,80,0.00,,CLR,0.15,VWS V14.00,2013-06-12 03:36:00,
2013-06-11 23:41:00,68.3,61.9,30.00,North,353,3.0,5.9,80,0.00,,CLR,0.15,VWS V14.00,2013-06-12 03:41:00,
2013-06-11 23:46:00,67.6,61.2,30.00,NNW,345,4.4,4.8,80,0.00,,CLR,0.15,VWS V14.00,2013-06-12 03:46:00,
2013-06-11 23:52:00,67.6,61.2,30.00,ENE,73,3.0,3.8,80,0.00,,CLR,0.15,VWS V14.00,2013-06-12 03:52:00,
2013-06-11 23:57:00,67.2,61.2,30.00,East,93,5.9,6.4,81,0.00,,CLR,0.15,VWS V14.00,2013-06-12 03:57:00,